PDA6001 LGIR-UKBB

Flight info

Callsign PDA6001
Flight time N/A
Altitude 35000
Route EPALO M749 MIL UL617 KEA/N0460F350 UG33 KRO UN604 BKZ/N0457F360 UN604 MAKOL N617 BINBI/N0453F370 DCT OSDOR/K0839F370 DCT VAPEL/K0843F360 T219 TEPLO/K0837F370 T219 KONIP
Aircraft A320/M-VD/A

Departure

Time 2026-05-04 16:14
Airport Heraklion International Nikos Kazantzakis Airport (LGIR)

Arrival

Time N/A
Airport Boryspil International Airport (UKBB)
Time Latitude Longitude Altitude Speed Heading
2026-05-04 16:01 35.33813 25.17900 125 ft 0 kts 185°
2026-05-04 16:06 35.33815 25.17901 125 ft 1 kts 185°
2026-05-04 16:07 35.33833 25.17903 97 ft 2 kts 186°
2026-05-04 16:07 35.33875 25.17899 97 ft 2 kts 118°
2026-05-04 16:08 35.33878 25.17891 97 ft 0 kts 97°
2026-05-04 16:11 35.33878 25.17892 97 ft 1 kts 97°
2026-05-04 16:12 35.33869 25.18149 103 ft 19 kts 94°
2026-05-04 16:12 35.33828 25.18752 114 ft 29 kts 93°
2026-05-04 16:13 35.33861 25.19011 116 ft 15 kts 45°
2026-05-04 16:13 35.33917 25.18850 114 ft 24 kts 275°
2026-05-04 16:14 35.34019 25.17427 89 ft 135 kts 277°
2026-05-04 16:14 35.34293 25.15036 1212 ft 136 kts 297°
2026-05-04 16:15 35.37259 25.13633 2197 ft 190 kts 341°
2026-05-04 16:16 35.40113 25.12582 2956 ft 238 kts 345°
2026-05-04 16:16 35.45179 25.13728 5688 ft 249 kts 11°
2026-05-04 16:17 35.48519 25.14833 7443 ft 253 kts 11°
2026-05-04 16:18 35.53744 25.16564 9795 ft 266 kts 12°
2026-05-04 16:18 35.55548 25.17163 10483 ft 272 kts 12°
2026-05-04 16:19 35.61717 25.19209 10997 ft 339 kts 13°
2026-05-04 16:19 35.66403 25.20786 11909 ft 355 kts 13°
2026-05-04 16:20 35.73679 25.23228 13695 ft 367 kts 13°
2026-05-04 16:20 35.78650 25.24897 14816 ft 373 kts 13°
2026-05-04 16:21 35.86234 25.27447 16451 ft 380 kts 12°
2026-05-04 16:22 35.91389 25.29184 17396 ft 389 kts 14°
2026-05-04 16:22 35.99296 25.31848 18890 ft 398 kts 13°
2026-05-04 16:23 36.07388 25.34587 20295 ft 406 kts 13°
2026-05-04 16:24 36.18435 25.38329 21983 ft 416 kts 14°
2026-05-04 16:25 36.24058 25.40241 22760 ft 421 kts 14°
2026-05-04 16:26 36.35466 25.44123 24128 ft 432 kts 15°
2026-05-04 16:26 36.44213 25.47100 25082 ft 437 kts 14°
2026-05-04 16:27 36.50079 25.49110 25909 ft 436 kts 13°
2026-05-04 16:28 36.58795 25.52112 27327 ft 431 kts 13°
2026-05-04 16:28 36.66450 25.54737 28679 ft 426 kts 13°
2026-05-04 16:29 36.78712 25.58954 30678 ft 421 kts 13°
2026-05-04 16:30 36.86220 25.61549 31862 ft 416 kts 12°
2026-05-04 16:31 36.91770 25.63474 32774 ft 412 kts 11°
2026-05-04 16:31 37.00039 25.66328 33892 ft 413 kts 11°
2026-05-04 16:32 37.08335 25.69211 34874 ft 412 kts 11°
2026-05-04 16:33 37.13883 25.71139 35108 ft 419 kts 12°
2026-05-04 16:33 37.19590 25.73127 35099 ft 430 kts 12°
2026-05-04 16:34 37.28284 25.76170 35105 ft 433 kts 12°
2026-05-04 16:35 37.45637 25.82257 35099 ft 432 kts 13°
2026-05-04 16:36 37.54327 25.85311 35089 ft 432 kts 13°
2026-05-04 16:37 37.63025 25.88366 35099 ft 433 kts 13°
2026-05-04 16:38 37.74646 25.92482 35099 ft 434 kts 13°
2026-05-04 16:39 37.89158 25.97635 35105 ft 435 kts 13°
2026-05-04 16:40 38.00800 26.01775 35092 ft 434 kts 14°
2026-05-04 16:41 38.15304 26.06977 35098 ft 433 kts 14°
2026-05-04 16:43 38.29789 26.12156 35096 ft 432 kts 14°
2026-05-04 16:43 38.38468 26.15290 35097 ft 432 kts 15°
2026-05-04 16:45 38.55826 26.21571 35095 ft 432 kts 15°
2026-05-04 16:46 38.70253 26.26803 35103 ft 432 kts 15°
2026-05-04 16:47 38.81770 26.31011 35102 ft 429 kts 16°
2026-05-04 16:48 38.93250 26.35206 35103 ft 428 kts 16°
2026-05-04 16:49 39.04706 26.39404 35101 ft 428 kts 17°
2026-05-04 16:50 39.16150 26.43633 35091 ft 428 kts 17°
2026-05-04 16:51 39.24705 26.46796 35091 ft 428 kts 17°
2026-05-04 16:52 39.35696 26.52148 35047 ft 420 kts 35°
2026-05-04 16:53 39.42841 26.58570 35037 ft 416 kts 35°
2026-05-04 16:54 39.52309 26.67048 35059 ft 410 kts 34°
2026-05-04 16:55 39.66468 26.79828 35064 ft 425 kts 34°
2026-05-04 16:56 39.78672 26.90739 35055 ft 426 kts 34°
2026-05-04 16:57 39.86005 26.97318 35069 ft 427 kts 34°
2026-05-04 16:58 39.95756 27.06108 35070 ft 427 kts 34°
2026-05-04 17:00 40.10437 27.19385 35093 ft 428 kts 34°
2026-05-04 17:01 40.22630 27.30464 35092 ft 425 kts 34°
2026-05-04 17:02 40.32321 27.39306 35078 ft 426 kts 34°
2026-05-04 17:03 40.39611 27.45983 35075 ft 426 kts 34°
2026-05-04 17:03 40.46863 27.52647 35096 ft 425 kts 34°
2026-05-04 17:04 40.56538 27.61552 35083 ft 424 kts 34°
2026-05-04 17:05 40.66198 27.70477 35078 ft 424 kts 34°
2026-05-04 17:06 40.73424 27.77179 35078 ft 423 kts 34°
2026-05-04 17:07 40.79837 27.83132 35077 ft 423 kts 34°
2026-05-04 17:07 40.85449 27.88382 35075 ft 423 kts 35°
2026-05-04 17:08 40.92647 27.95106 35071 ft 422 kts 35°
2026-05-04 17:09 40.97448 27.99593 35070 ft 422 kts 35°
2026-05-04 17:09 41.02243 28.04087 35070 ft 422 kts 35°
2026-05-04 17:10 41.14156 28.15301 35089 ft 419 kts 35°
2026-05-04 17:11 41.18912 28.19780 35076 ft 419 kts 35°
2026-05-04 17:12 41.26030 28.26512 35076 ft 418 kts 35°
2026-05-04 17:13 41.37867 28.37748 35055 ft 418 kts 35°
2026-05-04 17:14 41.47315 28.46751 35052 ft 419 kts 35°
2026-05-04 17:15 41.54419 28.53546 35043 ft 419 kts 35°
2026-05-04 17:16 41.63112 28.61875 35046 ft 420 kts 35°
2026-05-04 17:17 41.72588 28.71006 35059 ft 419 kts 36°
2026-05-04 17:18 41.82043 28.80149 35065 ft 418 kts 36°
2026-05-04 17:19 41.91473 28.89297 35055 ft 418 kts 36°
2026-05-04 17:20 42.00897 28.98463 35050 ft 418 kts 36°
2026-05-04 17:20 42.07957 29.05353 35052 ft 418 kts 36°
2026-05-04 17:21 42.18052 29.12632 35043 ft 419 kts 15°
2026-05-04 17:22 42.23740 29.14425 35033 ft 419 kts 15°
2026-05-04 17:23 42.35111 29.18010 35032 ft 420 kts 15°
2026-05-04 17:24 42.43654 29.20722 35032 ft 420 kts 15°
2026-05-04 17:25 42.55052 29.24348 35013 ft 421 kts 15°
2026-05-04 17:26 42.66452 29.27981 35013 ft 423 kts 15°
2026-05-04 17:27 42.80765 29.32587 35029 ft 423 kts 15°
2026-05-04 17:28 42.92213 29.36276 35036 ft 422 kts 15°
2026-05-04 17:29 43.09366 29.41833 35039 ft 422 kts 15°
2026-05-04 17:31 43.23624 29.46488 35036 ft 422 kts 15°
2026-05-04 17:32 43.37939 29.51158 35041 ft 422 kts 15°
2026-05-04 17:33 43.49379 29.54916 35014 ft 423 kts 15°
2026-05-04 17:34 43.60850 29.58696 35011 ft 425 kts 15°
2026-05-04 17:35 43.75264 29.63464 35021 ft 427 kts 15°
2026-05-04 17:36 43.81007 29.65382 35027 ft 427 kts 15°
2026-05-04 17:36 43.86787 29.67321 35030 ft 428 kts 15°
2026-05-04 17:37 43.92576 29.69248 35039 ft 428 kts 15°
2026-05-04 17:37 43.98370 29.71173 35032 ft 428 kts 15°
2026-05-04 17:38 44.04164 29.73115 35015 ft 429 kts 15°
2026-05-04 17:38 44.09974 29.75073 35017 ft 430 kts 15°
2026-05-04 17:39 44.18721 29.78020 35018 ft 431 kts 15°
2026-05-04 17:39 44.24567 29.79989 35018 ft 432 kts 15°
2026-05-04 17:40 44.30420 29.81976 35022 ft 433 kts 15°
2026-05-04 17:40 44.36277 29.83951 35035 ft 433 kts 15°
2026-05-04 17:41 44.42114 29.85929 35029 ft 434 kts 15°
2026-05-04 17:41 44.47988 29.87934 35031 ft 435 kts 15°
2026-05-04 17:42 44.53875 29.89946 35026 ft 435 kts 15°
2026-05-04 17:42 44.59766 29.91964 35020 ft 436 kts 15°
2026-05-04 17:43 44.65670 29.93986 35022 ft 437 kts 15°
2026-05-04 17:43 44.71589 29.96011 35027 ft 438 kts 15°
2026-05-04 17:44 44.77511 29.98046 35032 ft 438 kts 15°
2026-05-04 17:44 44.83449 30.00090 35038 ft 439 kts 15°
2026-05-04 17:45 44.89384 30.02141 35044 ft 439 kts 15°
2026-05-04 17:45 44.95316 30.04193 35047 ft 439 kts 15°
2026-05-04 17:46 45.01268 30.06161 35041 ft 439 kts 13°
2026-05-04 17:46 45.07276 30.07848 35029 ft 440 kts 12°
2026-05-04 17:47 45.13267 30.09474 35028 ft 441 kts 12°
2026-05-04 17:47 45.19294 30.11163 35028 ft 442 kts 12°
2026-05-04 17:48 45.25324 30.12908 35027 ft 442 kts 13°
2026-05-04 17:48 45.31361 30.14664 35031 ft 443 kts 12°
2026-05-04 17:49 45.37397 30.16409 35036 ft 443 kts 12°
2026-05-04 17:49 45.43450 30.18153 35037 ft 443 kts 12°
2026-05-04 17:50 45.49501 30.19902 35038 ft 443 kts 12°
2026-05-04 17:50 45.55549 30.21669 35039 ft 444 kts 13°
2026-05-04 17:51 45.61607 30.23432 35035 ft 443 kts 12°
2026-05-04 17:51 45.67626 30.25188 35040 ft 443 kts 12°
2026-05-04 17:52 45.73669 30.26961 35045 ft 443 kts 12°
2026-05-04 17:52 45.79720 30.28732 35046 ft 443 kts 12°
2026-05-04 17:53 45.85765 30.30505 35047 ft 443 kts 12°
2026-05-04 17:53 45.91805 30.32286 35043 ft 443 kts 12°
2026-05-04 17:54 45.97848 30.34071 35045 ft 443 kts 12°
2026-05-04 17:54 46.03891 30.35856 35045 ft 443 kts 12°
2026-05-04 17:55 46.09900 30.37630 35036 ft 443 kts 12°
2026-05-04 17:55 46.15947 30.39431 35033 ft 443 kts 11°
2026-05-04 17:56 46.21992 30.41237 35033 ft 444 kts 11°
2026-05-04 17:56 46.28060 30.43045 35028 ft 445 kts 11°
2026-05-04 17:57 46.33108 30.44550 35027 ft 446 kts 11°
2026-05-04 17:57 46.39181 30.46371 35031 ft 446 kts 11°
2026-05-04 17:58 46.45271 30.48201 35030 ft 447 kts 11°
2026-05-04 17:58 46.51361 30.50041 35023 ft 448 kts 12°
2026-05-04 17:59 46.57446 30.51889 35026 ft 448 kts 12°
2026-05-04 18:00 46.66621 30.54666 35021 ft 449 kts 11°
2026-05-04 18:00 46.72752 30.56515 35016 ft 451 kts 11°
2026-05-04 18:01 46.78878 30.58361 35017 ft 452 kts 11°
2026-05-04 18:01 46.85043 30.60240 35020 ft 452 kts 12°
2026-05-04 18:02 46.94293 30.63079 35026 ft 453 kts 12°
2026-05-04 18:02 47.00470 30.64968 35028 ft 453 kts 11°
2026-05-04 18:03 47.06646 30.66870 35033 ft 453 kts 12°
2026-05-04 18:03 47.12825 30.68767 35033 ft 453 kts 12°
2026-05-04 18:04 47.19008 30.70678 35032 ft 454 kts 11°
2026-05-04 18:05 47.28255 30.73561 35031 ft 455 kts 11°
2026-05-04 18:05 47.34458 30.75485 35038 ft 455 kts 11°
2026-05-04 18:06 47.43756 30.78371 35041 ft 455 kts 11°
2026-05-04 18:06 47.49949 30.80303 35040 ft 455 kts 11°
2026-05-04 18:07 47.56148 30.82243 35043 ft 454 kts 11°
2026-05-04 18:07 47.62295 30.84174 35045 ft 455 kts 11°
2026-05-04 18:08 47.68489 30.86126 35047 ft 455 kts 11°
2026-05-04 18:08 47.74684 30.88083 35047 ft 455 kts 11°
2026-05-04 18:09 47.87081 30.92001 35051 ft 455 kts 11°
2026-05-04 18:10 47.93279 30.93982 35051 ft 455 kts 11°
2026-05-04 18:10 47.99478 30.95960 35058 ft 455 kts 12°
2026-05-04 18:11 48.05628 30.97906 35058 ft 454 kts 10°
2026-05-04 18:11 48.11866 30.99446 35057 ft 454 kts
2026-05-04 18:12 48.18120 31.00744 35057 ft 454 kts
2026-05-04 18:12 48.24364 31.02107 35060 ft 453 kts
2026-05-04 18:13 48.30597 31.03566 35060 ft 453 kts
2026-05-04 18:14 48.39928 31.05781 35063 ft 452 kts
2026-05-04 18:14 48.46146 31.07232 35058 ft 452 kts
2026-05-04 18:15 48.58567 31.10142 35058 ft 451 kts
2026-05-04 18:16 48.64719 31.11586 34525 ft 449 kts
2026-05-04 18:16 48.67810 31.12312 33831 ft 450 kts
2026-05-04 18:16 48.70942 31.13052 33061 ft 450 kts
2026-05-04 18:17 48.77098 31.14513 31546 ft 451 kts 10°
2026-05-04 18:17 48.80191 31.15248 30790 ft 450 kts 10°
2026-05-04 18:17 48.86389 31.16721 29043 ft 451 kts 10°
2026-05-04 18:18 48.89493 31.17465 28047 ft 452 kts 10°
2026-05-04 18:18 48.92606 31.18213 27019 ft 454 kts 10°
2026-05-04 18:18 48.95729 31.18959 25960 ft 455 kts 10°
2026-05-04 18:18 48.98869 31.19703 24898 ft 457 kts 10°
2026-05-04 18:19 49.05146 31.21221 22974 ft 452 kts 12°
2026-05-04 18:19 49.08214 31.22122 22087 ft 445 kts 13°
2026-05-04 18:19 49.11222 31.23138 21198 ft 440 kts 14°
2026-05-04 18:20 49.14179 31.24207 20429 ft 434 kts 15°
2026-05-04 18:20 49.17117 31.25289 20134 ft 434 kts 15°
2026-05-04 18:20 49.20017 31.26342 20006 ft 433 kts 14°
2026-05-04 18:20 49.22997 31.27400 20041 ft 434 kts 14°
2026-05-04 18:21 49.25915 31.28411 20040 ft 435 kts 14°
2026-05-04 18:21 49.28868 31.29418 20041 ft 435 kts 14°
2026-05-04 18:21 49.31826 31.30420 20029 ft 435 kts 14°
2026-05-04 18:21 49.34778 31.31416 20040 ft 434 kts 13°
2026-05-04 18:22 49.37714 31.32399 19612 ft 428 kts 13°
2026-05-04 18:22 49.40613 31.33340 18778 ft 424 kts 13°
2026-05-04 18:22 49.43483 31.34257 17926 ft 419 kts 13°
2026-05-04 18:22 49.46313 31.35162 17068 ft 413 kts 13°
2026-05-04 18:23 49.49116 31.36062 16248 ft 408 kts 13°
2026-05-04 18:23 49.51870 31.36953 15492 ft 402 kts 13°
2026-05-04 18:23 49.54587 31.37836 14765 ft 397 kts 13°
2026-05-04 18:23 49.57279 31.38713 14066 ft 392 kts 12°
2026-05-04 18:24 49.59929 31.39574 13340 ft 387 kts 12°
2026-05-04 18:24 49.62553 31.40427 12575 ft 384 kts 12°
2026-05-04 18:24 49.65132 31.41267 11810 ft 380 kts 12°
2026-05-04 18:24 49.67706 31.42104 11048 ft 377 kts 12°
2026-05-04 18:25 49.70264 31.42937 10336 ft 374 kts 12°
2026-05-04 18:25 49.72821 31.43664 10087 ft 375 kts
2026-05-04 18:25 49.75403 31.43926 9904 ft 366 kts
2026-05-04 18:25 49.77883 31.43714 9771 ft 347 kts 355°
2026-05-04 18:26 49.80216 31.43290 9621 ft 330 kts 355°
2026-05-04 18:26 49.82435 31.42794 9501 ft 316 kts 347°
2026-05-04 18:26 49.84475 31.41681 9366 ft 304 kts 341°
2026-05-04 18:26 49.86414 31.40537 9222 ft 293 kts 341°
2026-05-04 18:27 49.88285 31.39425 9094 ft 283 kts 341°
2026-05-04 18:27 49.90098 31.38344 8890 ft 276 kts 340°
2026-05-04 18:27 49.91885 31.37278 8584 ft 274 kts 340°
2026-05-04 18:27 49.93660 31.36221 8255 ft 272 kts 340°
2026-05-04 18:28 49.95426 31.35172 7927 ft 271 kts 340°
2026-05-04 18:28 49.97188 31.34124 7607 ft 270 kts 340°
2026-05-04 18:28 49.98941 31.33081 7283 ft 269 kts 340°
2026-05-04 18:28 50.00665 31.32052 6971 ft 268 kts 340°
2026-05-04 18:29 50.02400 31.31013 6664 ft 267 kts 340°
2026-05-04 18:29 50.04131 31.29975 6344 ft 266 kts 340°
2026-05-04 18:29 50.05857 31.28943 6006 ft 265 kts 340°
2026-05-04 18:29 50.07582 31.27909 5640 ft 266 kts 340°
2026-05-04 18:30 50.11036 31.25830 4952 ft 267 kts 340°
2026-05-04 18:30 50.12773 31.24786 4602 ft 267 kts 339°
2026-05-04 18:30 50.14500 31.23749 4304 ft 265 kts 339°
2026-05-04 18:31 50.16221 31.22714 4039 ft 264 kts 339°
2026-05-04 18:31 50.17951 31.21671 4018 ft 267 kts 338°
2026-05-04 18:31 50.19690 31.20622 4020 ft 268 kts 339°
2026-05-04 18:31 50.21430 31.19574 4020 ft 268 kts 339°
2026-05-04 18:32 50.23172 31.18526 4016 ft 268 kts 338°
2026-05-04 18:32 50.24916 31.17476 4017 ft 268 kts 339°
2026-05-04 18:32 50.26654 31.16430 4015 ft 264 kts 338°
2026-05-04 18:32 50.28322 31.15425 4014 ft 250 kts 338°
2026-05-04 18:33 50.29881 31.14480 4016 ft 238 kts 338°
2026-05-04 18:33 50.31419 31.13545 4014 ft 237 kts 338°
2026-05-04 18:33 50.32956 31.12608 4014 ft 236 kts 338°
2026-05-04 18:33 50.34489 31.11672 4014 ft 236 kts 338°
2026-05-04 18:34 50.36022 31.10738 4013 ft 236 kts 338°
2026-05-04 18:34 50.37554 31.09808 4014 ft 236 kts 338°
2026-05-04 18:34 50.39090 31.08877 4014 ft 236 kts 339°
2026-05-04 18:34 50.40623 31.07945 4014 ft 236 kts 338°
2026-05-04 18:35 50.42157 31.07011 4012 ft 236 kts 337°
2026-05-04 18:35 50.43691 31.06079 3762 ft 236 kts 337°
2026-05-04 18:35 50.45227 31.05145 3427 ft 237 kts 337°
2026-05-04 18:35 50.46765 31.04222 3092 ft 238 kts 341°
2026-05-04 18:36 50.48358 31.03699 3002 ft 228 kts 354°
2026-05-04 18:36 50.49924 31.03695 3010 ft 224 kts
2026-05-04 18:36 50.51466 31.03816 3008 ft 222 kts
2026-05-04 18:36 50.52978 31.03546 3012 ft 218 kts 333°
2026-05-04 18:37 50.54115 31.02079 3013 ft 211 kts 297°
2026-05-04 18:37 50.54540 30.99930 3006 ft 205 kts 269°
2026-05-04 18:37 50.54270 30.97812 3006 ft 193 kts 240°
2026-05-04 18:37 50.53444 30.96265 3002 ft 186 kts 214°
2026-05-04 18:38 50.52378 30.95128 3004 ft 184 kts 213°
2026-05-04 18:38 50.51316 30.93999 2997 ft 184 kts 213°
2026-05-04 18:38 50.50252 30.92867 3005 ft 184 kts 213°
2026-05-04 18:38 50.49155 30.91826 2910 ft 185 kts 200°
2026-05-04 18:39 50.47901 30.91521 2728 ft 181 kts 183°
2026-05-04 18:39 50.46663 30.91431 2485 ft 174 kts 183°
2026-05-04 18:39 50.45502 30.91345 2259 ft 160 kts 183°
2026-05-04 18:39 50.44448 30.91267 2078 ft 142 kts 183°
2026-05-04 18:40 50.43512 30.91198 1881 ft 132 kts 183°
2026-05-04 18:40 50.42613 30.91131 1712 ft 127 kts 183°
2026-05-04 18:40 50.41734 30.91066 1547 ft 127 kts 183°
2026-05-04 18:40 50.40848 30.91001 1376 ft 128 kts 183°
2026-05-04 18:41 50.39956 30.90935 1208 ft 129 kts 182°
2026-05-04 18:41 50.39063 30.90869 1040 ft 131 kts 182°
2026-05-04 18:41 50.38158 30.90815 889 ft 131 kts 183°
2026-05-04 18:41 50.37233 30.90751 745 ft 134 kts 184°
2026-05-04 18:42 50.36311 30.90600 590 ft 134 kts 186°
2026-05-04 18:42 50.35350 30.90387 1070 ft 150 kts 185°
2026-05-04 18:42 50.34221 30.90145 1568 ft 178 kts 182°
2026-05-04 18:42 50.32958 30.90099 2107 ft 191 kts 181°
2026-05-04 18:43 50.31601 30.90078 2625 ft 198 kts 181°
2026-05-04 18:43 50.30200 30.90046 3173 ft 204 kts 182°
2026-05-04 18:43 50.29259 30.90014 3534 ft 208 kts 183°
2026-05-04 18:43 50.27767 30.89933 3935 ft 222 kts 184°
2026-05-04 18:44 50.26172 30.89772 4007 ft 233 kts 184°
2026-05-04 18:44 50.25096 30.89644 4015 ft 235 kts 184°
2026-05-04 18:44 50.22426 30.89962 4023 ft 234 kts 152°
2026-05-04 18:44 50.21554 30.90989 4022 ft 234 kts 130°
2026-05-04 18:45 50.20857 30.93251 4019 ft 234 kts 97°
2026-05-04 18:45 50.21051 30.95738 4022 ft 234 kts 65°
2026-05-04 18:45 50.22073 30.97679 4019 ft 235 kts 33°
2026-05-04 18:45 50.23547 30.98556 4020 ft 236 kts 12°
2026-05-04 18:46 50.25168 30.99029 4022 ft 237 kts
2026-05-04 18:46 50.26796 30.99452 4020 ft 237 kts
2026-05-04 18:46 50.28422 30.99863 4020 ft 237 kts
2026-05-04 18:46 50.30047 31.00273 4017 ft 237 kts
2026-05-04 18:47 50.31675 31.00682 4016 ft 237 kts
2026-05-04 18:47 50.33303 31.01092 4017 ft 237 kts
2026-05-04 18:47 50.34932 31.01501 4017 ft 237 kts
2026-05-04 18:47 50.36560 31.01908 4017 ft 237 kts
2026-05-04 18:48 50.38188 31.02316 4019 ft 237 kts
2026-05-04 18:48 50.39828 31.02757 4012 ft 241 kts
2026-05-04 18:48 50.41474 31.03227 4012 ft 240 kts
2026-05-04 18:48 50.43119 31.03694 4011 ft 241 kts
2026-05-04 18:49 50.44762 31.04159 3789 ft 239 kts
2026-05-04 18:49 50.46398 31.04616 3447 ft 240 kts
2026-05-04 18:49 50.48046 31.05066 3122 ft 240 kts
2026-05-04 18:49 50.49659 31.05513 3010 ft 240 kts
2026-05-04 18:50 50.51269 31.05968 3008 ft 227 kts
2026-05-04 18:50 50.52781 31.05950 3009 ft 214 kts 338°
2026-05-04 18:50 50.53961 31.04675 3013 ft 205 kts 301°
2026-05-04 18:50 50.54439 31.02630 3012 ft 200 kts 274°
2026-05-04 18:51 50.54549 31.00440 3009 ft 200 kts 270°
2026-05-04 18:51 50.54598 30.98256 3007 ft 200 kts 269°
2026-05-04 18:51 50.54431 30.96103 3008 ft 198 kts 250°
2026-05-04 18:51 50.53814 30.94191 3008 ft 197 kts 230°
2026-05-04 18:52 50.52823 30.92732 3009 ft 196 kts 212°
2026-05-04 18:52 50.51592 30.91900 3004 ft 188 kts 193°
2026-05-04 18:52 50.50299 30.91698 3007 ft 184 kts 184°
2026-05-04 18:52 50.49048 30.91607 2892 ft 177 kts 184°
2026-05-04 18:53 50.47846 30.91519 2697 ft 169 kts 184°
2026-05-04 18:53 50.46654 30.91430 2488 ft 183 kts 184°
2026-05-04 18:53 50.45364 30.91334 2234 ft 182 kts 183°
2026-05-04 18:53 50.44142 30.91245 1999 ft 173 kts 183°
2026-05-04 18:54 50.42986 30.91160 1780 ft 159 kts 183°
2026-05-04 18:54 50.41946 30.91083 1609 ft 140 kts 183°
2026-05-04 18:54 50.40998 30.91012 1406 ft 132 kts 184°
2026-05-04 18:54 50.40086 30.90945 1235 ft 130 kts 182°
2026-05-04 18:55 50.39181 30.90878 1061 ft 131 kts 182°
2026-05-04 18:55 50.37335 30.90742 716 ft 135 kts 182°